• In Netherlands
  • List of Countries
  • For 7 days
  • Water Temperature
  • Satellite Maps
  • Weather Map
  • Weather Widgets
  • user-avatar
    Login

    Hourly Weather Ganja

    Today, 28 June, Wednesday

    Time Temperature Precipitation Wind Pressure Humidity
    00:00 +23°C° 0 mm 1 mps 724 mmHg 78%
    01:00 +22°C° 0 mm 1 mps 723 mmHg 81%
    02:00 +22°C° 0 mm 1 mps 723 mmHg 83%
    03:00 +19°C° 0 mm 0 mps 723 mmHg 86%
    04:00 +20°C° 0 mm 0 mps 723 mmHg 83%
    05:00 +22°C° 0 mm 0 mps 723 mmHg 81%
    06:00 +23°C° 0 mm 0 mps 724 mmHg 78%
    07:00 +26°C° 0 mm 1 mps 723 mmHg 72%
    08:00 +28°C° 0 mm 1 mps 723 mmHg 65%
    09:00 +30°C° 0 mm 1 mps 723 mmHg 58%
    10:00 +31°C° 0 mm 2 mps 723 mmHg 54%
    11:00 +32°C° 0 mm 2 mps 722 mmHg 49%
    12:00 +34°C° 0 mm 3 mps 722 mmHg 45%
    13:00 +35°C° 0.1 mm 3 mps 722 mmHg 44%
    14:00 +35°C° 0.1 mm 3 mps 721 mmHg 43%
    15:00 +36°C° 0.1 mm 4 mps 721 mmHg 43%
    16:00 +35°C° 0.2 mm 4 mps 721 mmHg 45%
    17:00 +35°C° 0.2 mm 3 mps 721 mmHg 47%
    18:00 +34°C° 0.2 mm 3 mps 721 mmHg 49%
    19:00 +31°C° 0.1 mm 3 mps 721 mmHg 53%
    20:00 +29°C° 0.1 mm 3 mps 722 mmHg 57%
    21:00 +27°C° 0.1 mm 3 mps 722 mmHg 60%
    22:00 +26°C° 0.1 mm 2 mps 722 mmHg 62%
    23:00 +25°C° 0.1 mm 2 mps 722 mmHg 63%

    Tomorrow, 29 June, Thursday

    Time Temperature Precipitation Wind Pressure Humidity
    00:00 +24°C° 0.1 mm 2 mps 722 mmHg 65%
    01:00 +24°C° 0 mm 1 mps 722 mmHg 66%
    02:00 +23°C° 0 mm 1 mps 722 mmHg 68%
    03:00 +22°C° 0 mm 1 mps 722 mmHg 69%
    04:00 +23°C° 0 mm 1 mps 722 mmHg 67%
    05:00 +25°C° 0 mm 1 mps 722 mmHg 64%
    06:00 +26°C° 0 mm 1 mps 723 mmHg 61%
    07:00 +27°C° 0 mm 1 mps 723 mmHg 56%
    08:00 +29°C° 0 mm 2 mps 723 mmHg 50%
    09:00 +30°C° 0 mm 2 mps 723 mmHg 44%
    10:00 +31°C° 0 mm 2 mps 722 mmHg 41%
    11:00 +32°C° 0 mm 2 mps 722 mmHg 38%
    12:00 +34°C° 0 mm 2 mps 722 mmHg 35%
    13:00 +35°C° 0 mm 2 mps 722 mmHg 34%
    14:00 +35°C° 0 mm 2 mps 721 mmHg 33%
    15:00 +36°C° 0 mm 3 mps 721 mmHg 32%
    16:00 +35°C° 0.1 mm 2 mps 721 mmHg 34%
    17:00 +35°C° 0.1 mm 2 mps 721 mmHg 36%
    18:00 +34°C° 0.1 mm 2 mps 721 mmHg 38%
    19:00 +31°C° 0 mm 2 mps 721 mmHg 42%
    20:00 +29°C° 0 mm 2 mps 722 mmHg 46%
    21:00 +26°C° 0 mm 2 mps 722 mmHg 49%
    22:00 +26°C° 0 mm 2 mps 722 mmHg 49%
    23:00 +25°C° 0 mm 2 mps 722 mmHg 49%

    Day after tomorrow, 30 June, Friday

    Time Temperature Precipitation Wind Pressure Humidity
    00:00 +25°C° 0 mm 2 mps 722 mmHg 49%
    01:00 +24°C° 0 mm 2 mps 722 mmHg 52%
    02:00 +23°C° 0 mm 2 mps 722 mmHg 55%
    03:00 +21°C° 0 mm 2 mps 722 mmHg 57%
    04:00 +23°C° 0 mm 2 mps 722 mmHg 59%
    05:00 +24°C° 0 mm 2 mps 723 mmHg 60%
    06:00 +25°C° 0 mm 2 mps 723 mmHg 61%
    07:00 +26°C° 0 mm 3 mps 723 mmHg 55%
    08:00 +28°C° 0 mm 3 mps 723 mmHg 48%
    09:00 +30°C° 0 mm 3 mps 723 mmHg 42%
    10:00 +31°C° 0 mm 3 mps 723 mmHg 38%
    11:00 +32°C° 0 mm 2 mps 723 mmHg 35%
    12:00 +34°C° 0 mm 2 mps 722 mmHg 32%
    13:00 +34°C° 0 mm 2 mps 722 mmHg 31%
    14:00 +35°C° 0 mm 2 mps 722 mmHg 30%
    15:00 +35°C° 0 mm 2 mps 722 mmHg 29%
    16:00 +35°C° 0 mm 2 mps 722 mmHg 30%
    17:00 +34°C° 0 mm 2 mps 722 mmHg 32%
    18:00 +33°C° 0 mm 1 mps 722 mmHg 34%
    19:00 +30°C° 0.1 mm 2 mps 723 mmHg 36%
    20:00 +28°C° 0.1 mm 2 mps 723 mmHg 38%
    21:00 +26°C° 0.1 mm 2 mps 724 mmHg 41%
    22:00 +25°C° 0 mm 2 mps 724 mmHg 41%
    23:00 +25°C° 0 mm 2 mps 724 mmHg 41%

    1 July, Saturday

    Time Temperature Precipitation Wind Pressure Humidity
    00:00 +24°C° 0 mm 2 mps 724 mmHg 42%
    01:00 +24°C° 0 mm 2 mps 724 mmHg 43%
    02:00 +23°C° 0 mm 2 mps 724 mmHg 44%
    03:00 +23°C° 0 mm 2 mps 724 mmHg 45%
    04:00 +23°C° 0 mm 2 mps 725 mmHg 46%
    05:00 +24°C° 0 mm 2 mps 725 mmHg 46%
    06:00 +24°C° 0 mm 2 mps 725 mmHg 46%
    07:00 +26°C° 0 mm 2 mps 725 mmHg 41%
    08:00 +28°C° 0 mm 2 mps 725 mmHg 36%
    09:00 +31°C° 0 mm 2 mps 725 mmHg 30%
    10:00 +32°C° 0 mm 2 mps 725 mmHg 28%
    11:00 +34°C° 0 mm 2 mps 725 mmHg 26%
    12:00 +35°C° 0 mm 2 mps 725 mmHg 24%
    13:00 +36°C° 0 mm 3 mps 725 mmHg 23%
    14:00 +36°C° 0 mm 3 mps 724 mmHg 23%
    15:00 +37°C° 0 mm 4 mps 724 mmHg 22%
    16:00 +36°C° 0 mm 4 mps 724 mmHg 25%
    17:00 +35°C° 0 mm 4 mps 724 mmHg 28%
    18:00 +35°C° 0 mm 4 mps 724 mmHg 30%
    19:00 +32°C° 0 mm 4 mps 725 mmHg 32%
    20:00 +29°C° 0 mm 4 mps 725 mmHg 34%
    21:00 +27°C° 0 mm 3 mps 726 mmHg 37%
    22:00 +26°C° 0 mm 3 mps 726 mmHg 37%
    23:00 +25°C° 0 mm 3 mps 726 mmHg 37%

    2 July, Sunday

    Time Temperature Precipitation Wind Pressure Humidity
    00:00 +25°C° 0 mm 3 mps 726 mmHg 37%
    01:00 +24°C° 0 mm 2 mps 726 mmHg 37%
    02:00 +24°C° 0 mm 2 mps 726 mmHg 37%
    03:00 +23°C° 0 mm 2 mps 726 mmHg 36%
    04:00 +24°C° 0 mm 2 mps 726 mmHg 37%
    05:00 +25°C° 0 mm 2 mps 726 mmHg 38%
    06:00 +25°C° 0 mm 2 mps 726 mmHg 40%
    07:00 +27°C° 0 mm 2 mps 726 mmHg 35%
    08:00 +29°C° 0 mm 2 mps 726 mmHg 31%
    09:00 +31°C° 0 mm 2 mps 726 mmHg 27%
    10:00 +34°C° 0 mm 2 mps 725 mmHg 26%
    11:00 +35°C° 0 mm 3 mps 725 mmHg 24%
    12:00 +36°C° 0 mm 3 mps 725 mmHg 23%
    13:00 +37°C° 0 mm 4 mps 724 mmHg 23%
    14:00 +38°C° 0 mm 4 mps 724 mmHg 23%
    15:00 +39°C° 0 mm 5 mps 723 mmHg 22%
    16:00 +39°C° 0 mm 5 mps 723 mmHg 25%
    17:00 +37°C° 0 mm 5 mps 723 mmHg 27%
    18:00 +36°C° 0 mm 4 mps 723 mmHg 30%
    19:00 +34°C° 0 mm 4 mps 723 mmHg 33%
    20:00 +30°C° 0 mm 4 mps 724 mmHg 35%
    21:00 +28°C° 0 mm 3 mps 724 mmHg 38%
    22:00 +27°C° 0 mm 3 mps 724 mmHg 39%
    23:00 +26°C° 0 mm 3 mps 724 mmHg 41%

    3 July, Monday

    Time Temperature Precipitation Wind Pressure Humidity
    00:00 +25°C° 0 mm 2 mps 723 mmHg 42%
    01:00 +25°C° 0 mm 2 mps 723 mmHg 43%
    02:00 +24°C° 0 mm 2 mps 723 mmHg 44%
    03:00 +23°C° 0 mm 2 mps 723 mmHg 45%
    04:00 +24°C° 0 mm 2 mps 723 mmHg 46%
    05:00 +25°C° 0 mm 2 mps 723 mmHg 46%
    06:00 +26°C° 0 mm 2 mps 723 mmHg 46%
    07:00 +28°C° 0 mm 2 mps 723 mmHg 40%
    08:00 +30°C° 0 mm 2 mps 723 mmHg 34%
    09:00 +32°C° 0 mm 2 mps 722 mmHg 28%
    10:00 +34°C° 0 mm 2 mps 722 mmHg 27%
    11:00 +35°C° 0 mm 2 mps 721 mmHg 26%
    12:00 +36°C° 0 mm 2 mps 721 mmHg 24%
    13:00 +37°C° 0 mm 2 mps 721 mmHg 24%
    14:00 +38°C° 0 mm 2 mps 720 mmHg 24%
    15:00 +38°C° 0 mm 2 mps 720 mmHg 24%
    16:00 +38°C° 0 mm 2 mps 720 mmHg 26%
    17:00 +37°C° 0 mm 2 mps 720 mmHg 29%
    18:00 +37°C° 0 mm 2 mps 720 mmHg 32%
    19:00 +34°C° 0 mm 2 mps 720 mmHg 35%
    20:00 +30°C° 0 mm 2 mps 720 mmHg 39%
    21:00 +27°C° 0 mm 1 mps 721 mmHg 42%
    22:00 +27°C° 0 mm 1 mps 721 mmHg 43%
    23:00 +26°C° 0 mm 1 mps 720 mmHg 43%
    Show more